Powrót do katalogu

CZ-6A DEB

AktywnySSO
NORAD 54401·DEBRIS·🇨🇳 China

Wystrzelony Nov 11, 2022 z Taiyuan Satellite Launch Center

Loading…

Następne Przeloty (najbliższe 24 godziny)

TLE

ŚwieżeSource: Space-Track

Epoka: Sep 14, 2026, 22:53 UTC

1 54401U 22151DZ  26257.95406223  .00001442  00000-0  51981-3 0  9996
2 54401  98.6612 256.8419 0111694 235.3141 123.7478 14.31796544199313

Śledź CZ-6A DEB w czasie rzeczywistym z AllMySat

Download on the App Store